Wind_Speed
26 26 26 26 25 25 25 26 26 26 25 26 29 32 32 32 33 33 32 30 30 30 31 32 33 35 37 38 39 39 40 40 41 40 41 41 42 43 44 44 44 44 44 44 43 44 45 48 49 49 47 44 45 45 45 43 43 44 46 46 47 47 47 48 47 43 43 44 44 43 44 45 46 47 48 48 51 52 51 51 51 52 54 55 55
25 26 27 27 26 26 26 26 26 26 27 28 30 32 33 32 32 33 32 30 30 31 31 33 35 36 38 39 40 41 42 42 42 42 42 43 44 44 44 45 44 43 43 43 43 44 46 48 49 49 46 44 45 45 43 42 41 41 43 44 45 46 46 47 47 45 43 44 44 44 45 46 45 46 47 47 50 53 53 53 52 51 52 54 56
26 27 29 29 28 28 27 27 27 27 28 29 30 32 32 32 32 32 32 31 30 30 31 33 35 37 38 40 42 43 44 45 45 44 44 44 44 45 45 45 44 43 44 44 44 45 46 47 48 47 45 44 45 45 42 41 40 40 41 42 43 45 46 46 47 47 45 45 45 44 45 47 45 45 46 47 48 51 52 53 54 52 51 53 55
26 28 30 30 29 29 28 28 28 28 29 30 31 32 32 33 33 33 33 32 32 31 32 35 37 38 40 42 43 45 46 47 47 47 46 46 45 45 46 47 47 45 45 45 45 46 47 47 46 45 45 45 46 46 43 40 39 39 40 41 42 42 44 45 46 46 45 45 46 45 44 46 46 45 45 46 47 50 51 52 54 54 51 51 54
26 28 31 31 30 29 29 28 29 30 31 32 32 32 34 34 34 35 35 35 34 34 34 36 38 39 41 43 44 46 47 48 49 49 49 47 45 45 47 49 48 47 46 47 47 47 47 46 45 44 45 46 46 45 42 38 37 37 39 39 39 40 41 43 44 44 44 44 45 45 44 45 45 44 44 45 46 49 50 50 53 56 53 51 54
25 29 32 32 30 29 29 29 31 32 33 34 33 34 36 36 37 37 37 36 35 35 36 37 39 41 43 44 46 47 48 49 49 50 50 48 46 45 46 47 48 48 48 48 48 47 47 46 45 45 45 44 45 43 39 37 35 36 38 39 39 39 41 41 42 42 41 41 43 44 43 44 44 43 44 45 46 47 49 49 52 55 54 52 54
26 30 33 32 30 29 29 29 31 32 34 35 35 36 38 39 39 39 39 38 37 37 38 39 41 43 44 45 47 48 49 50 50 50 50 50 49 48 46 46 46 47 48 48 47 47 47 46 46 45 43 42 42 39 37 37 36 36 38 39 39 40 40 40 41 41 40 38 40 43 43 43 42 42 44 45 45 46 47 48 50 53 54 52 53
28 32 33 31 29 29 28 29 30 32 34 35 36 38 40 40 40 40 39 39 39 39 39 41 43 44 46 47 48 49 50 51 51 52 52 51 50 48 47 47 47 46 45 45 45 46 46 46 45 43 40 39 39 37 36 37 36 36 37 39 40 40 41 41 41 40 39 37 38 40 42 42 41 41 43 44 44 44 46 48 48 50 52 52 54
31 34 33 31 30 29 28 30 32 34 35 37 39 40 40 40 40 40 40 40 40 40 41 43 44 46 47 49 50 50 51 51 52 53 53 52 51 49 49 49 48 45 43 42 43 44 45 45 43 41 39 37 37 37 37 38 39 39 40 41 42 44 45 45 44 41 39 37 36 38 40 40 41 41 41 43 44 44 45 47 47 47 49 50 53
33 35 33 31 31 29 29 31 34 36 38 40 41 41 41 40 40 40 40 40 41 41 43 44 46 48 50 51 51 51 51 52 53 53 53 52 51 49 49 48 45 43 42 43 44 44 44 44 42 40 38 36 35 36 37 39 41 42 43 45 46 47 47 47 45 41 38 35 34 36 37 38 39 40 40 42 44 44 45 46 46 45 46 46 47
33 34 33 32 32 30 30 33 36 37 39 41 42 41 41 40 41 41 41 41 42 43 45 46 48 50 51 51 52 52 52 52 52 51 51 51 50 49 48 46 44 42 43 44 46 45 44 43 40 37 36 35 34 35 36 38 41 42 44 45 47 47 47 47 45 41 37 33 32 33 35 36 37 39 40 41 44 44 45 47 47 44 43 42 43
33 33 34 34 33 31 31 34 36 38 40 42 42 41 41 41 42 43 42 42 44 45 46 47 49 51 51 51 51 52 52 51 51 50 50 50 49 47 46 44 43 42 42 44 45 45 43 40 38 35 34 34 34 35 36 38 39 41 42 42 42 44 45 46 45 42 37 32 29 30 32 34 35 38 40 42 44 45 45 48 49 46 41 39 41
32 34 35 36 34 33 33 35 37 39 42 42 41 41 42 43 44 44 44 45 45 46 47 48 50 51 50 50 51 52 51 51 50 49 49 48 48 46 45 43 40 39 41 44 45 42 39 36 35 34 33 33 34 35 36 37 38 38 39 39 40 41 43 45 45 43 39 33 29 28 29 31 33 36 39 42 45 45 46 48 52 50 43 39 40
32 34 35 35 34 33 34 36 39 42 42 41 41 41 43 44 44 45 46 47 47 48 49 50 50 50 50 51 51 51 51 51 50 48 46 46 45 44 43 40 36 37 41 44 43 38 34 32 32 32 32 33 34 35 36 36 36 36 37 37 39 41 44 44 44 43 39 34 31 29 28 28 31 34 38 41 43 45 47 49 52 53 47 41 40
32 33 34 34 33 34 36 38 41 42 41 40 41 43 43 44 45 46 47 47 48 50 51 51 51 51 51 50 50 50 49 50 49 47 44 42 40 40 40 36 34 37 41 42 39 33 29 29 30 31 32 33 34 33 33 34 35 36 36 37 39 41 44 44 43 42 39 34 32 32 30 28 29 33 36 39 41 44 47 49 51 54 50 41 38
32 32 34 34 34 35 37 40 42 41 39 40 42 43 44 45 46 47 47 47 48 51 53 53 53 52 50 50 50 49 48 48 49 47 43 39 37 38 39 36 33 35 39 38 34 31 28 28 29 30 31 32 33 33 32 33 34 36 36 36 38 40 42 43 42 41 40 36 33 33 32 29 29 32 35 37 39 42 47 49 51 54 49 40 37
32 33 34 34 34 35 38 41 41 39 39 41 41 42 45 46 46 47 47 47 49 51 53 54 53 51 50 50 50 49 47 46 47 46 43 40 38 39 39 36 33 34 37 36 33 31 30 29 29 29 30 31 31 31 32 32 34 35 36 36 37 39 40 40 39 39 39 38 35 34 31 28 27 31 35 37 37 41 46 48 50 53 48 39 38
34 36 37 36 35 35 39 42 41 40 40 40 39 41 44 45 45 45 46 48 50 52 53 53 52 51 50 50 50 49 47 47 45 44 42 40 39 39 39 36 33 34 38 38 35 32 31 31 30 29 28 28 28 29 31 32 34 35 35 36 37 38 39 38 36 35 35 36 35 32 29 24 24 29 34 35 36 39 44 46 49 52 46 37 38
37 39 40 38 35 35 39 41 41 41 40 38 39 42 43 43 43 44 46 50 52 52 53 53 53 52 50 50 50 48 47 46 44 43 42 40 39 39 39 37 36 38 40 40 37 33 31 31 30 28 27 27 27 28 30 32 33 34 36 37 37 37 37 37 35 32 31 30 28 26 24 21 22 27 32 34 34 37 41 44 48 51 44 35 38
38 40 40 37 34 35 38 40 41 40 37 37 41 43 41 41 43 45 49 51 52 52 53 54 53 52 50 50 49 48 47 46 44 43 42 40 39 39 40 39 39 40 40 38 37 33 31 31 31 29 28 28 28 29 30 31 32 34 35 36 36 35 36 36 35 33 30 25 20 17 18 18 20 26 29 31 32 35 38 40 44 47 43 36 38
38 39 39 35 34 36 38 39 40 38 36 39 43 43 42 42 44 47 51 51 50 52 54 53 52 52 51 50 49 47 47 46 45 43 42 41 40 40 40 40 40 40 39 36 35 32 30 30 31 30 29 28 28 29 30 30 31 33 34 35 35 35 35 34 32 32 30 24 18 15 15 16 19 24 27 28 31 34 36 36 38 41 40 35 36
37 37 37 35 36 40 41 41 40 39 39 43 46 45 46 47 47 50 52 51 51 54 54 53 52 52 51 49 48 47 47 46 45 43 42 41 41 41 41 40 40 39 36 33 32 31 29 29 30 29 28 28 27 28 29 29 30 32 32 33 33 34 35 33 29 29 29 25 19 16 15 16 18 22 25 27 30 33 33 33 35 36 36 33 32
36 35 36 37 40 44 45 43 43 43 44 47 49 49 50 50 51 53 53 52 54 55 53 52 52 51 49 48 48 47 47 46 44 43 42 42 42 42 41 40 39 36 31 30 30 30 28 28 28 28 28 27 26 27 28 29 31 31 30 31 32 33 34 33 27 23 24 23 21 17 15 17 19 22 25 27 30 31 31 31 32 32 33 32 30
37 36 37 40 43 45 46 45 44 44 46 49 51 51 51 52 54 55 55 55 55 54 54 53 51 48 48 48 48 47 47 46 43 41 41 41 42 42 41 40 37 32 28 28 29 29 28 28 27 27 27 26 26 27 28 28 29 29 28 29 31 32 33 31 26 20 18 19 20 16 13 16 20 22 25 28 29 30 30 30 29 29 29 29 29
37 37 39 41 43 44 45 45 45 46 49 51 52 52 52 55 57 56 56 56 55 55 54 53 49 47 47 47 47 47 46 45 43 41 40 40 41 41 40 39 35 30 27 27 27 28 27 27 26 26 26 25 25 26 27 27 27 27 25 27 29 30 31 30 25 20 16 14 17 16 13 15 18 20 24 27 28 29 29 30 30 28 27 27 28
36 37 38 39 42 44 45 46 47 49 52 53 53 54 56 57 57 56 56 56 55 54 53 51 48 47 46 46 46 46 45 44 43 41 40 40 40 40 38 37 33 28 25 25 25 26 26 25 25 26 25 25 26 26 26 25 25 24 23 25 26 28 30 28 24 22 19 13 13 15 12 12 15 20 24 26 28 28 29 30 30 29 28 28 29
33 34 37 41 45 46 47 48 50 52 53 54 55 57 58 57 56 55 55 55 54 53 52 50 48 47 46 46 46 45 45 44 43 41 40 40 40 39 37 34 30 26 24 24 24 25 25 24 25 25 25 24 26 26 25 24 23 22 21 23 24 26 29 28 26 25 22 16 12 12 11 10 13 20 24 26 27 27 27 28 30 30 30 30 30
32 37 42 45 46 45 47 51 53 53 54 55 57 58 58 56 55 55 55 55 54 53 51 49 48 46 45 45 45 45 44 43 42 40 39 39 39 37 35 32 28 24 23 23 24 24 24 24 25 25 24 24 25 25 23 21 21 20 19 21 23 25 27 29 29 27 24 19 15 11 9 10 12 18 24 27 27 27 26 27 29 31 31 31 31
37 43 46 45 45 47 51 54 55 55 56 57 58 58 57 56 56 56 55 54 53 51 48 45 44 43 43 44 44 44 43 42 41 39 38 39 38 35 33 30 26 23 22 22 23 24 24 24 24 24 23 23 23 23 21 18 18 18 18 19 21 23 26 28 29 30 28 22 16 12 6 9 14 17 21 26 29 29 28 28 29 31 31 30 29
39 43 46 47 49 52 54 54 55 56 56 57 57 57 56 56 56 56 55 53 50 47 44 41 40 40 42 43 43 43 41 40 39 38 37 38 36 33 32 29 26 24 23 22 22 24 24 24 24 23 22 21 21 21 20 17 16 16 16 18 20 22 24 26 28 30 31 27 19 13 8 3 13 19 21 23 27 30 30 29 29 30 31 30 30
43 47 50 52 53 54 53 54 56 57 57 56 56 56 56 56 56 55 53 51 48 45 42 40 39 40 41 42 42 41 39 39 38 37 37 37 35 32 31 29 27 26 24 23 23 23 23 23 23 23 21 20 20 19 18 16 15 15 15 16 18 20 22 24 26 28 30 30 25 18 13 5 7 17 22 23 25 27 29 30 31 32 32 32 32
49 52 53 54 54 54 54 56 57 57 56 56 55 55 55 55 55 53 51 48 46 44 41 39 39 39 40 41 41 40 39 38 37 37 36 36 34 31 30 29 29 27 25 24 23 22 22 22 22 22 21 19 18 18 16 14 14 14 14 15 16 18 20 22 24 25 27 29 29 25 19 12 2 9 17 22 26 27 28 30 32 33 34 34 34
51 53 55 55 55 55 56 56 56 56 55 55 54 53 53 53 53 51 48 45 44 43 41 39 38 38 38 38 39 39 38 37 36 35 36 35 33 30 29 29 29 29 28 25 23 22 22 22 22 21 20 18 17 16 15 14 14 14 14 14 15 16 18 19 21 23 24 26 28 28 25 19 10 2 7 17 23 27 28 30 31 33 34 35 36
52 55 57 56 55 55 55 55 54 54 54 54 52 52 51 51 49 45 44 43 42 40 39 38 37 37 36 36 36 37 37 36 34 34 34 34 32 30 28 28 29 30 29 27 25 23 22 22 22 22 20 19 17 16 15 14 14 14 14 14 14 14 15 17 18 20 22 23 25 27 27 25 19 12 4 7 17 23 27 30 32 34 36 37 38
53 55 55 55 54 53 53 53 53 53 53 52 51 50 49 48 45 44 44 42 39 37 37 36 36 35 35 35 35 36 35 34 33 32 33 33 31 29 27 27 26 27 29 29 28 26 25 24 23 23 21 20 18 16 15 15 15 15 14 14 13 13 14 15 16 18 19 21 22 24 25 25 24 20 13 5 5 14 21 27 32 36 37 37 37
51 51 52 52 52 52 52 53 53 52 51 49 49 48 47 46 44 44 43 40 37 36 36 35 35 34 34 34 35 35 34 33 32 31 31 30 29 27 26 25 25 24 25 28 29 29 28 27 26 24 23 22 20 18 16 15 16 16 15 14 14 13 13 14 15 16 17 18 19 21 22 23 24 23 21 16 9 1 9 17 24 32 37 39 38
48 50 51 51 51 51 52 52 51 50 49 48 48 47 46 45 44 43 40 37 36 35 35 34 35 35 34 34 34 34 33 31 30 30 29 28 27 26 25 25 24 24 24 25 27 29 30 29 28 26 25 24 23 20 18 17 16 16 16 15 14 14 13 13 14 14 15 16 17 18 19 20 21 22 22 21 18 12 4 4 12 20 28 36 39
48 49 50 50 51 52 52 51 50 50 49 48 47 47 46 44 43 41 38 37 36 35 34 34 35 35 34 34 34 32 31 30 28 28 27 27 27 28 27 26 26 25 24 24 25 26 27 28 27 26 25 25 24 22 20 19 18 17 17 16 16 15 14 13 14 14 14 14 15 15 16 17 18 19 20 20 20 19 15 8 1 8 15 23 30
48 49 49 50 51 51 51 51 51 50 48 47 47 47 46 45 43 40 38 37 36 35 34 34 34 34 34 34 32 31 30 29 28 28 28 27 28 29 29 28 27 26 25 25 24 24 24 25 26 26 25 25 24 24 22 21 20 19 18 18 18 17 16 15 14 14 15 15 15 14 15 15 16 17 18 18 18 19 19 16 11 4 5 11 17
49 49 49 49 49 50 50 50 50 49 46 46 47 47 47 45 42 40 38 37 36 34 33 33 34 34 34 33 31 30 29 28 28 29 29 29 29 29 29 29 28 27 27 26 25 24 23 23 24 24 24 24 24 24 23 22 21 20 20 19 19 19 19 17 16 15 15 16 16 15 14 14 14 15 16 16 16 16 17 17 17 13 8 3 6
50 49 49 49 48 48 47 47 47 46 45 46 47 47 45 43 41 40 38 36 34 33 32 32 33 33 33 33 31 29 27 27 28 28 29 29 28 28 28 28 27 27 27 26 26 24 24 23 23 23 24 24 24 23 23 23 22 22 22 21 21 21 21 20 18 17 16 16 16 16 15 14 13 13 14 14 14 15 15 15 15 15 14 11 7
50 49 49 49 47 46 45 44 44 45 46 47 47 45 42 41 40 39 37 35 33 32 31 31 32 33 33 33 31 29 27 26 27 28 28 28 27 26 26 25 25 25 25 25 25 25 24 24 24 24 24 24 24 24 24 24 24 24 23 23 22 22 22 21 20 19 17 17 16 16 16 15 13 12 12 13 13 13 14 14 14 14 14 14 12
49 48 48 47 46 45 45 44 44 45 46 46 44 42 40 39 39 38 36 34 33 32 31 31 31 32 32 32 32 30 28 27 27 27 27 27 26 26 25 24 24 24 23 24 24 24 24 24 24 24 24 24 24 24 25 25 25 25 25 24 24 23 22 22 22 21 19 18 17 17 16 16 14 13 12 12 12 12 12 13 13 13 13 13 13
48 47 46 46 45 45 45 44 44 45 46 45 43 41 39 38 37 36 35 34 33 32 32 31 31 31 30 31 32 31 30 29 28 27 26 26 26 25 24 24 23 23 22 22 23 23 23 23 23 23 23 24 24 24 24 24 25 25 25 25 24 24 23 23 22 22 21 20 19 18 17 17 16 15 14 13 12 12 12 12 12 12 12 12 12
47 45 45 45 45 44 44 44 45 45 45 43 41 39 38 36 36 35 34 34 33 33 32 32 31 30 30 30 31 31 30 29 28 27 26 25 25 24 24 23 23 23 22 22 22 22 23 22 22 22 22 22 23 23 23 23 24 24 24 24 24 24 24 24 23 23 23 23 22 21 20 19 18 18 17 15 14 13 13 13 13 13 12 12 12
46 45 44 44 44 44 43 43 43 43 42 40 38 37 35 35 34 34 33 33 33 33 33 33 32 31 30 30 30 30 29 29 28 27 26 25 25 24 24 24 23 23 23 23 23 23 24 24 24 24 24 24 24 24 24 24 23 23 24 24 24 25 25 25 24 24 24 25 24 24 23 22 21 20 19 18 17 16 15 14 14 14 14 13 13
44 44 43 41 40 39 38 38 38 38 37 36 35 35 34 33 33 32 32 32 33 33 33 33 32 31 30 29 29 29 29 29 28 26 25 25 25 25 24 25 24 24 25 25 25 26 26 26 26 27 26 26 26 26 26 25 25 25 25 25 25 25 25 26 26 26 26 26 26 26 25 25 24 22 21 20 19 18 18 17 16 16 16 16 15
40 39 38 35 34 34 34 35 35 35 34 33 33 32 32 32 32 32 32 32 33 33 33 32 32 31 30 29 29 29 28 28 27 26 25 26 26 26 26 26 26 27 27 27 28 28 28 28 28 29 28 28 28 28 28 27 27 27 27 26 26 26 26 26 27 27 27 27 27 27 27 26 25 24 23 22 21 20 20 19 19 18 18 18 18
33 33 32 32 32 33 34 34 34 33 33 33 32 32 32 32 32 31 31 31 32 32 32 32 32 32 31 30 29 28 27 27 26 26 26 26 27 27 27 27 28 28 29 29 29 30 30 30 30 30 31 30 30 29 29 29 28 28 28 27 27 26 26 26 26 26 27 27 27 27 27 27 26 26 24 23 22 21 21 21 21 20 20 20 20
31 32 32 33 33 33 33 33 33 32 32 32 32 32 32 32 32 31 30 30 30 31 31 31 31 31 30 29 28 27 26 26 26 26 27 27 28 28 28 28 29 29 29 30 30 31 31 30 30 31 32 32 31 30 29 28 27 27 26 26 25 24 24 24 24 25 25 25 25 25 25 26 26 26 25 24 23 22 22 22 22 22 22 22 22
32 32 32 32 33 33 32 32 32 32 31 32 33 32 32 32 32 31 30 30 30 30 30 30 29 28 28 28 27 27 27 27 27 27 28 28 28 29 29 29 28 28 28 29 29 29 29 29 28 29 30 30 29 28 27 25 24 23 23 22 22 22 21 21 21 22 22 22 23 23 24 24 24 24 24 24 23 23 23 23 24 23 23 24 24
Wind_Direction
298 301 302 302 301 301 301 302 305 310 312 313 316 319 319 318 318 315 311 309 309 308 308 310 314 316 317 317 317 316 316 316 316 316 315 315 314 313 312 311 312 312 312 313 313 313 314 312 309 308 306 302 302 303 301 297 293 290 288 288 288 286 284 283 279 271 265 265 262 258 256 253 252 254 254 252 250 246 240 238 238 238 237 234 232
298 299 302 303 303 302 303 304 308 315 316 316 318 319 318 317 315 312 309 307 307 307 310 314 316 318 318 318 317 317 317 317 316 316 316 315 314 313 312 313 315 315 313 313 313 312 312 310 307 306 305 303 303 302 299 297 295 291 290 290 289 288 286 284 283 278 269 265 263 260 257 254 251 252 253 251 250 247 242 239 238 238 237 235 233
296 297 299 302 303 303 305 307 310 315 316 315 316 316 315 314 312 309 307 306 306 307 310 313 316 318 320 320 319 318 317 316 316 316 315 315 314 314 314 315 316 316 314 313 312 312 312 309 306 305 305 306 305 302 298 296 295 292 290 290 288 287 287 285 283 281 275 268 264 261 257 255 252 250 251 250 249 248 245 241 240 238 236 234 231
295 295 297 300 302 304 307 309 311 313 313 312 311 312 312 311 310 308 305 304 305 307 310 313 317 320 321 320 318 317 317 317 317 316 315 315 315 315 315 316 317 317 316 314 313 312 311 308 305 304 304 306 305 303 299 297 296 294 291 290 288 287 287 286 285 283 279 272 266 262 257 254 253 251 250 248 247 248 246 242 241 240 238 234 230
296 295 295 297 301 305 308 308 308 310 311 310 309 310 310 310 310 308 305 303 305 308 312 316 319 320 319 318 317 318 319 320 319 318 317 315 315 316 316 316 317 317 316 314 311 309 308 306 303 302 302 304 304 303 301 298 296 295 292 290 289 288 287 288 287 285 281 275 269 263 257 254 252 251 250 247 245 246 246 242 239 240 240 235 229
293 290 291 296 302 306 307 305 306 309 310 309 307 308 310 310 311 309 306 306 307 310 314 317 319 319 318 317 317 318 319 319 319 319 318 316 315 316 316 317 317 316 314 312 309 305 304 303 301 300 301 302 302 302 300 298 296 294 292 291 291 290 290 289 288 287 284 278 270 265 259 255 252 250 250 248 244 244 244 242 238 238 240 237 231
287 286 290 297 301 302 302 303 307 310 310 308 305 307 310 311 311 310 308 307 308 311 315 318 318 318 317 317 317 317 318 318 319 319 317 316 315 315 316 317 316 314 312 308 305 303 304 303 302 301 300 299 299 299 297 295 294 292 292 291 291 291 290 291 291 290 286 281 273 266 261 257 252 250 250 249 245 242 242 242 239 236 238 238 234
286 286 290 294 296 297 299 302 307 308 307 305 304 305 308 310 310 309 308 309 311 314 318 319 318 317 317 317 316 316 317 318 319 318 317 316 315 314 315 315 313 310 307 305 304 305 305 303 302 301 299 296 295 294 293 293 293 294 294 293 292 292 293 295 296 293 289 284 276 268 263 258 253 250 248 248 245 241 239 240 239 236 236 236 234
287 287 289 292 294 296 298 301 304 305 304 303 303 304 307 310 310 310 310 311 314 317 319 318 318 318 317 317 316 316 317 318 319 318 317 315 314 314 314 313 311 308 306 306 305 305 303 301 301 300 297 295 293 291 291 293 294 297 298 296 295 295 296 297 297 295 291 286 278 269 263 259 254 249 247 247 245 240 237 238 237 235 235 236 235
286 288 293 295 295 296 298 301 302 303 303 302 302 305 308 310 311 311 311 312 315 317 318 319 319 318 317 316 316 317 318 318 318 317 317 316 315 314 313 312 310 307 305 305 305 304 302 301 302 300 297 295 295 293 292 293 295 298 299 299 298 299 300 298 297 297 293 287 278 269 262 259 255 250 245 244 244 240 236 235 234 232 233 236 236
289 292 296 296 294 294 296 300 302 302 302 302 303 306 309 311 312 311 310 312 314 317 318 319 319 318 317 317 317 318 319 318 318 317 316 316 314 313 312 311 309 307 306 307 306 305 303 303 302 299 296 297 298 297 295 295 297 299 300 301 302 303 303 300 298 298 295 287 276 267 261 258 254 251 246 242 242 240 234 232 230 228 229 234 234
293 295 297 296 294 291 292 298 302 302 301 302 305 308 310 310 310 309 309 312 315 317 318 318 318 317 316 317 318 319 319 318 317 316 315 314 313 312 312 310 309 308 309 309 308 305 303 303 302 298 295 297 299 299 298 298 300 302 304 306 306 306 304 302 302 301 298 288 274 263 261 258 254 252 248 242 240 238 234 231 228 225 227 231 230
295 297 296 296 292 286 288 296 301 301 300 303 306 308 308 308 308 308 311 314 316 317 317 317 316 316 316 317 317 317 318 317 316 315 314 313 312 312 313 311 308 309 311 310 307 306 305 303 301 298 295 295 298 299 300 302 304 307 309 310 309 308 305 304 303 303 300 291 275 261 260 260 255 251 248 243 238 236 234 230 227 226 229 230 226
293 294 294 293 288 283 285 293 298 298 300 303 306 306 306 306 308 310 313 316 316 316 315 315 315 315 316 316 316 316 316 315 314 313 312 311 312 315 316 313 309 311 314 311 309 309 308 303 300 298 295 296 299 300 302 305 308 309 310 311 311 309 306 305 303 302 300 294 280 267 261 261 256 250 247 243 237 233 232 229 226 226 230 230 224
291 291 290 288 284 282 285 290 294 296 298 303 305 305 306 308 311 312 314 315 315 314 314 314 314 315 315 316 315 315 315 313 311 311 311 311 314 319 319 313 310 316 318 314 312 313 308 303 300 298 296 297 300 302 305 306 307 309 311 313 312 310 308 306 303 301 300 294 283 273 268 267 260 249 246 244 237 232 230 227 224 225 229 230 225
290 288 287 286 283 283 283 285 291 295 298 302 305 306 308 311 312 312 312 312 312 313 313 313 314 315 315 315 315 315 314 310 309 311 311 310 314 320 320 312 310 318 320 314 312 313 308 303 301 298 297 300 303 306 307 307 308 311 313 313 312 311 310 306 302 300 299 295 287 278 275 274 262 246 244 245 239 232 229 224 220 222 227 229 224
286 285 284 284 284 282 281 284 292 296 299 302 305 307 309 310 310 310 310 310 311 312 312 312 314 315 315 315 315 314 311 308 308 310 310 309 310 315 317 312 307 316 322 317 311 309 305 303 302 300 299 301 304 306 307 309 311 312 312 313 313 312 309 305 299 297 298 298 292 285 280 275 258 242 241 245 240 232 227 220 216 219 225 227 222
282 283 283 283 283 281 283 289 296 298 299 300 303 305 307 307 308 308 308 307 309 311 311 312 314 315 315 314 313 312 309 307 308 309 309 308 306 308 312 310 303 309 319 319 311 305 303 303 305 303 301 302 303 304 307 310 312 312 314 315 314 313 311 307 300 297 298 299 295 290 285 273 250 237 240 244 241 232 223 216 213 216 221 224 220
281 283 284 284 281 282 289 296 299 299 298 298 301 303 302 303 305 307 307 308 310 311 312 313 314 314 314 313 312 310 308 307 308 308 308 308 306 305 307 306 301 304 311 313 309 304 301 303 307 309 307 305 304 306 310 312 312 313 316 316 315 315 316 314 307 301 300 298 294 292 286 269 241 232 238 243 240 228 217 214 213 214 219 226 223
282 286 289 287 285 289 295 298 298 296 293 295 301 302 300 301 305 307 309 311 312 313 314 314 314 313 312 311 310 309 308 307 307 307 308 308 307 305 304 303 303 305 305 305 304 303 300 302 306 309 309 307 307 309 312 312 312 314 316 317 317 319 323 324 318 312 308 300 293 290 282 262 237 230 235 240 235 222 212 211 212 212 218 228 225
286 291 293 290 289 292 293 295 298 293 288 295 302 303 301 303 305 308 311 313 313 314 314 313 312 311 310 310 309 308 307 307 306 306 307 307 306 306 305 306 307 307 302 298 300 301 300 301 304 306 306 307 308 310 312 312 312 314 316 319 322 325 330 331 327 321 315 306 299 296 280 255 235 230 233 236 228 215 206 205 207 209 217 226 223
289 292 290 288 288 288 288 293 299 295 290 297 304 304 304 305 306 308 311 312 312 313 312 311 310 310 310 310 308 307 306 305 305 305 306 306 306 306 307 308 309 306 299 294 296 299 299 300 302 303 303 305 307 309 312 311 311 314 319 323 327 331 333 333 330 324 316 306 299 294 274 250 234 230 230 228 220 208 200 200 203 206 214 222 221
288 287 285 285 287 288 289 294 299 297 296 300 304 305 305 305 306 310 311 310 310 311 310 309 310 310 310 308 306 305 305 304 305 306 306 306 306 306 307 309 309 305 297 291 294 298 299 300 302 302 302 305 307 309 311 311 311 316 321 326 331 335 335 333 331 328 318 304 295 290 269 244 231 224 222 217 210 202 197 197 202 206 212 220 221
285 283 283 286 288 288 290 294 296 296 297 302 304 305 305 305 306 309 309 309 309 308 308 309 309 309 308 306 304 305 304 304 305 306 305 305 306 307 309 309 307 303 297 292 294 297 298 301 304 303 302 305 308 309 311 311 311 316 324 330 335 338 339 337 336 336 327 304 290 286 267 241 228 218 212 207 201 197 195 195 200 206 213 223 227
282 281 284 287 287 288 290 294 296 296 299 303 303 303 304 305 306 308 308 308 307 307 307 308 308 307 305 303 303 303 303 304 305 305 305 306 306 307 309 308 305 300 297 294 294 296 299 303 306 305 305 307 308 308 311 311 311 317 326 333 337 341 343 343 342 346 345 316 290 285 271 245 227 211 203 201 197 196 197 196 198 205 213 223 228
279 282 286 288 289 291 294 297 299 298 299 300 300 301 304 305 306 307 307 306 306 306 307 307 306 305 303 301 301 301 302 303 304 305 306 306 306 307 309 307 302 298 296 295 294 295 299 304 306 306 307 307 307 308 311 312 312 318 328 334 340 346 349 349 349 354 359 346 303 287 272 244 220 203 199 201 200 200 202 201 201 205 212 219 223
277 282 288 291 293 294 296 297 298 296 296 297 299 302 304 305 306 306 305 305 306 306 306 307 306 305 303 301 301 302 303 304 305 306 307 306 306 308 309 306 301 297 294 293 292 294 299 303 304 304 304 304 305 308 312 313 313 319 329 336 342 349 355 358 359 359 2 4 340 304 275 242 217 204 202 207 208 206 206 205 205 209 214 217 218
276 287 293 295 294 293 293 293 293 293 294 297 300 302 304 305 306 305 305 306 306 307 308 308 306 305 304 303 303 303 304 305 306 306 306 306 306 308 308 305 301 296 294 293 293 295 299 302 302 301 301 301 303 308 312 312 313 319 330 338 343 350 357 4 7 5 7 13 7 337 290 248 227 211 207 210 212 211 208 207 208 211 215 216 216
277 290 294 293 289 289 290 291 291 294 297 299 301 303 304 305 305 305 306 306 306 307 308 306 303 303 303 303 303 304 305 306 306 306 305 304 305 306 306 304 300 296 294 292 294 296 298 300 301 300 300 301 304 309 313 313 313 320 329 336 341 348 356 4 8 9 12 16 15 3 323 243 226 216 209 210 213 213 210 208 210 212 213 216 217
280 289 289 287 287 289 291 292 294 297 299 301 302 303 303 303 304 305 305 306 307 308 307 304 302 303 304 303 303 304 305 306 306 305 304 303 302 302 302 300 296 294 293 293 294 295 296 298 299 299 301 303 305 309 314 314 313 319 327 333 339 346 354 1 7 10 13 15 17 21 22 243 218 212 210 211 215 216 212 209 211 212 213 215 217
284 289 288 288 291 293 294 295 297 298 299 299 299 300 300 301 303 304 305 306 308 307 304 301 301 302 303 304 305 306 306 307 306 304 302 301 300 299 298 296 292 290 290 292 294 293 293 295 297 298 301 304 306 309 312 311 310 316 323 330 336 344 351 359 5 8 11 13 16 25 34 30 217 212 211 210 211 214 215 213 211 211 212 216 217
287 289 290 291 293 294 295 296 297 297 297 297 298 299 300 301 302 303 305 306 306 304 301 299 299 300 302 304 305 307 307 307 306 303 301 299 298 297 296 294 289 285 286 289 291 292 292 292 293 296 299 302 304 306 306 305 305 311 319 326 334 342 348 355 2 6 8 10 14 21 28 32 41 216 219 216 209 207 212 215 214 211 213 216 216
288 288 290 292 293 294 295 295 295 296 296 296 297 298 300 301 302 304 305 305 302 300 299 300 301 302 303 303 305 306 307 307 305 302 299 297 296 295 295 294 288 282 281 284 287 289 292 292 292 294 296 299 300 301 300 299 298 304 313 322 330 339 345 351 357 2 4 7 10 15 20 27 35 54 227 225 216 208 208 212 214 214 214 215 215
286 287 289 291 292 293 293 294 295 296 297 297 298 299 300 302 303 306 306 303 299 296 297 300 302 303 303 303 304 305 305 305 302 299 296 295 295 294 295 295 291 283 279 279 282 285 288 290 291 293 293 293 294 294 294 294 294 297 305 314 322 330 339 345 351 356 1 4 6 9 14 18 24 33 45 223 221 215 210 209 210 213 216 217 215
285 286 288 289 290 291 292 293 294 296 298 300 301 302 302 302 303 305 305 302 298 296 298 301 301 301 302 303 304 304 304 303 300 297 295 294 295 295 296 297 297 288 278 274 277 281 284 286 288 290 291 290 288 290 290 290 291 293 297 304 313 321 330 338 345 351 356 360 3 6 9 11 14 21 30 36 215 216 214 209 205 207 213 217 217
284 286 287 288 289 291 292 293 294 296 298 300 300 301 302 302 303 303 302 301 299 299 300 301 301 301 302 303 303 304 304 302 299 296 294 293 294 295 295 298 301 297 284 275 274 277 279 282 284 286 288 287 286 286 288 287 288 290 292 297 304 312 321 329 336 344 350 354 358 2 4 6 8 12 16 21 30 142 210 212 206 204 208 214 217
285 286 286 287 288 290 291 293 296 297 299 299 299 299 300 301 302 300 298 297 299 300 300 300 300 301 301 302 303 304 303 302 299 296 293 292 292 293 293 295 297 298 293 285 280 278 277 277 278 280 282 283 283 284 284 285 285 286 289 293 297 303 312 320 325 332 340 346 350 354 358 1 4 5 7 10 15 25 45 203 211 209 209 211 212
286 285 286 287 289 290 292 294 296 298 298 298 298 298 299 301 301 298 295 295 298 298 298 298 298 299 300 301 303 302 301 300 297 293 291 291 291 291 292 293 292 292 292 290 287 284 279 275 273 275 276 278 280 280 281 282 283 283 286 290 293 296 302 308 315 321 327 333 339 344 348 352 356 359 1 4 6 12 19 25 242 215 213 211 207
285 285 286 287 288 291 293 295 296 297 297 296 296 297 298 299 298 296 295 295 296 296 295 295 296 297 298 299 300 300 299 297 294 291 290 289 290 290 291 291 291 290 289 288 287 287 284 279 274 273 273 274 276 277 279 280 281 282 284 286 289 293 295 299 304 310 314 319 326 331 336 341 345 349 353 358 1 3 6 10 12 358 232 221 213
284 285 286 286 288 291 294 296 296 296 295 294 294 295 296 296 295 294 294 294 294 293 293 294 295 296 296 297 298 298 297 295 292 290 289 288 288 288 289 290 290 289 288 287 286 286 285 282 278 275 274 274 274 274 276 278 279 281 282 284 285 288 292 294 298 302 306 310 314 318 323 329 334 338 342 347 352 355 357 360 3 4 359 315 233
283 284 285 286 288 292 294 296 296 295 294 295 295 294 294 293 292 291 292 292 292 293 293 294 294 294 294 295 295 296 296 295 293 292 291 289 288 287 287 288 288 288 288 287 287 285 284 283 281 279 277 276 275 275 275 277 278 280 281 282 283 285 288 291 294 296 298 301 304 307 311 315 320 326 330 334 340 345 348 350 352 353 354 355 344
283 284 285 286 289 291 292 293 295 295 296 297 296 293 290 289 288 289 290 291 291 293 293 293 293 293 294 295 295 296 295 294 294 293 292 291 290 289 289 288 287 287 286 286 286 286 285 284 282 281 279 277 277 277 276 276 277 278 279 281 282 284 285 288 290 292 294 295 296 299 301 303 306 312 316 321 326 330 335 339 342 343 343 345 346
284 285 286 287 290 291 291 291 293 295 296 296 294 292 288 287 286 287 289 291 291 292 292 291 291 293 294 294 294 294 294 294 293 293 293 292 291 290 289 288 287 286 285 286 286 287 286 285 283 280 279 277 277 277 277 276 276 277 278 279 280 282 283 285 287 289 290 291 291 291 293 295 297 299 301 305 311 315 319 324 328 331 333 334 335
285 286 286 288 290 292 291 290 291 292 292 292 292 291 288 287 287 288 289 290 291 290 290 290 290 291 291 290 291 293 294 294 294 292 291 291 289 288 286 285 285 284 284 285 285 285 285 284 282 280 279 277 276 276 276 276 275 276 277 278 279 281 282 283 284 285 286 287 287 286 286 286 288 290 291 292 294 298 303 308 311 315 319 321 322
287 287 286 287 290 291 291 290 290 290 289 289 290 289 287 287 288 289 289 289 289 289 289 289 289 288 288 288 289 291 292 292 291 291 290 288 286 285 283 282 282 282 283 283 282 282 282 282 282 280 279 277 276 275 275 275 275 276 276 277 278 280 281 281 282 282 283 284 284 283 283 282 281 281 283 284 284 285 288 291 295 298 301 304 306
288 288 288 289 289 290 289 288 288 288 288 288 287 287 287 288 289 288 288 288 288 289 289 290 289 289 288 287 288 289 289 289 289 289 288 287 285 283 283 282 281 281 281 281 280 280 280 280 280 279 279 278 278 277 277 277 277 277 277 278 278 279 280 281 281 281 281 282 282 281 281 280 279 278 277 276 277 278 279 280 281 283 285 287 289
288 289 289 290 290 289 288 287 287 287 287 287 287 287 288 289 288 288 289 289 289 289 290 289 289 289 288 287 288 287 287 287 287 286 285 285 284 283 282 282 281 281 280 280 280 279 279 279 279 279 279 279 279 279 280 280 280 280 279 279 279 279 280 280 281 281 281 280 280 279 279 277 277 276 274 272 271 272 272 273 274 274 274 275 276
289 290 290 290 289 288 288 288 288 288 287 287 287 288 288 287 287 288 289 289 289 289 289 288 288 288 288 287 287 286 286 286 287 286 285 285 284 283 282 282 281 281 281 281 280 280 280 280 280 280 280 280 280 281 281 281 281 282 281 281 280 280 280 279 279 280 279 278 278 277 277 276 275 274 272 270 269 268 267 267 268 268 268 267 267
292 291 290 289 288 287 288 288 288 288 288 287 287 286 286 286 286 286 287 287 287 287 287 287 288 288 288 287 286 285 285 285 285 285 285 284 284 283 283 282 282 281 281 280 280 280 279 279 279 279 279 279 280 281 281 281 281 282 282 281 281 280 279 278 277 276 275 275 274 273 273 273 272 271 270 268 266 265 265 264 263 263 263 262 261
293 292 290 289 287 286 285 285 285 286 286 286 285 285 284 284 284 284 284 284 283 283 283 285 286 287 286 286 285 284 284 284 284 284 284 284 284 284 284 283 282 281 280 279 278 277 277 276 276 276 276 277 278 279 280 281 281 281 281 280 280 278 277 275 274 272 271 271 270 269 269 268 268 268 268 266 265 263 263 262 261 260 260 259 258
292 291 290 289 287 286 285 285 284 284 284 283 283 282 282 282 282 282 281 281 281 282 282 283 284 284 284 284 285 285 286 286 286 286 286 286 286 286 285 284 283 281 279 278 276 275 275 275 275 275 275 275 276 278 280 281 281 281 281 280 279 278 277 275 273 272 270 269 269 268 267 267 266 266 266 265 264 263 261 261 260 259 258 257 256
Height
5892 5891 5891 5890 5890 5889 5887 5886 5884 5883 5882 5881 5879 5877 5876 5875 5874 5873 5871 5869 5867 5866 5864 5862 5860 5857 5855 5853 5851 5848 5845 5842 5840 5837 5835 5833 5831 5828 5825 5823 5821 5818 5816 5813 5811 5809 5805 5802 5799 5797 5794 5792 5789 5787 5783 5781 5779 5775 5773 5771 5768 5766 5765 5764 5766 5771 5773 5771 5773 5774 5774 5774 5775 5775 5776 5780 5781 5782 5785 5789 5792 5794 5797 5800 5804
5889 5888 5887 5886 5886 5885 5883 5882 5880 5879 5878 5877 5875 5874 5873 5872 5871 5870 5868 5866 5864 5862 5860 5858 5856 5854 5852 5850 5847 5844 5841 5838 5836 5833 5831 5828 5826 5823 5820 5818 5816 5814 5811 5808 5806 5803 5800 5797 5793 5790 5789 5786 5783 5781 5778 5775 5773 5771 5768 5766 5764 5761 5759 5758 5758 5761 5765 5765 5764 5766 5765 5765 5768 5769 5769 5772 5774 5774 5777 5782 5785 5787 5790 5793 5797
5886 5885 5884 5883 5882 5881 5880 5878 5876 5875 5874 5873 5872 5871 5870 5869 5868 5867 5866 5864 5861 5859 5858 5855 5853 5851 5848 5845 5842 5839 5836 5834 5831 5829 5826 5824 5821 5818 5815 5813 5811 5809 5805 5803 5800 5798 5795 5791 5787 5784 5782 5780 5777 5774 5771 5769 5767 5765 5763 5761 5759 5757 5754 5753 5752 5753 5756 5757 5757 5758 5758 5757 5759 5762 5762 5764 5767 5767 5770 5775 5778 5780 5783 5787 5791
5883 5882 5880 5879 5879 5878 5876 5874 5873 5872 5871 5870 5869 5868 5867 5865 5864 5864 5862 5860 5858 5856 5854 5851 5848 5845 5843 5840 5838 5835 5833 5830 5827 5824 5822 5819 5816 5813 5810 5807 5806 5803 5800 5797 5794 5792 5789 5785 5782 5778 5776 5774 5771 5768 5765 5763 5761 5759 5758 5756 5755 5753 5751 5748 5746 5746 5748 5749 5749 5750 5750 5749 5751 5754 5755 5757 5759 5760 5763 5767 5770 5773 5777 5780 5785
5879 5877 5876 5875 5875 5874 5872 5870 5869 5868 5867 5866 5866 5865 5863 5861 5860 5860 5859 5857 5854 5851 5848 5846 5843 5841 5839 5837 5834 5831 5828 5826 5823 5820 5817 5814 5812 5809 5805 5802 5799 5797 5795 5791 5788 5786 5783 5779 5776 5773 5770 5768 5765 5763 5760 5757 5756 5754 5752 5751 5750 5748 5746 5744 5741 5740 5740 5741 5741 5741 5742 5742 5743 5746 5747 5749 5752 5753 5756 5760 5763 5766 5769 5773 5778
5875 5874 5872 5872 5872 5870 5868 5866 5865 5864 5863 5862 5862 5861 5859 5857 5856 5855 5854 5852 5850 5847 5844 5841 5838 5836 5834 5832 5829 5826 5824 5821 5819 5816 5813 5810 5807 5804 5801 5798 5794 5791 5789 5785 5782 5778 5775 5773 5771 5768 5765 5763 5760 5758 5755 5752 5751 5750 5748 5746 5745 5743 5741 5739 5736 5734 5733 5733 5733 5733 5734 5735 5736 5739 5739 5741 5744 5747 5749 5753 5756 5760 5763 5767 5771
5873 5871 5869 5869 5868 5866 5864 5863 5862 5861 5860 5859 5858 5857 5855 5853 5852 5851 5849 5847 5845 5842 5839 5835 5833 5831 5830 5827 5825 5822 5819 5817 5814 5811 5808 5805 5802 5798 5796 5792 5789 5786 5783 5779 5775 5772 5769 5766 5764 5762 5760 5757 5755 5753 5750 5747 5746 5745 5743 5742 5740 5738 5735 5733 5731 5728 5727 5726 5725 5725 5726 5728 5729 5731 5732 5733 5737 5741 5744 5747 5750 5753 5757 5761 5765
5871 5868 5866 5866 5864 5863 5861 5859 5858 5858 5857 5856 5855 5854 5852 5850 5848 5847 5845 5842 5840 5837 5833 5831 5829 5827 5825 5823 5820 5817 5814 5812 5809 5806 5802 5799 5796 5794 5791 5788 5784 5781 5777 5773 5770 5766 5763 5760 5758 5756 5755 5752 5750 5748 5746 5742 5741 5740 5739 5737 5735 5732 5730 5727 5725 5722 5720 5719 5719 5718 5719 5720 5722 5724 5725 5726 5730 5735 5737 5740 5744 5747 5751 5754 5758
5867 5864 5863 5862 5861 5859 5858 5856 5854 5853 5853 5852 5851 5849 5848 5846 5844 5842 5840 5838 5835 5832 5829 5826 5824 5822 5819 5817 5815 5812 5810 5807 5804 5800 5797 5794 5791 5788 5786 5782 5778 5775 5771 5768 5765 5762 5758 5755 5753 5751 5749 5747 5745 5743 5741 5737 5736 5735 5733 5731 5729 5727 5724 5721 5717 5715 5713 5713 5712 5711 5712 5714 5715 5717 5719 5719 5722 5727 5731 5734 5738 5742 5744 5747 5751
5862 5860 5858 5858 5857 5855 5854 5852 5850 5849 5848 5847 5846 5844 5843 5841 5840 5838 5836 5833 5830 5827 5824 5821 5819 5816 5814 5812 5809 5807 5805 5802 5798 5795 5791 5788 5785 5783 5780 5776 5773 5769 5766 5763 5760 5757 5753 5750 5748 5745 5743 5742 5741 5739 5737 5734 5731 5729 5727 5725 5722 5720 5718 5714 5711 5708 5707 5706 5705 5704 5705 5707 5708 5710 5713 5714 5715 5719 5724 5727 5732 5736 5738 5740 5744
5857 5855 5854 5852 5852 5851 5849 5847 5846 5845 5844 5843 5841 5839 5838 5836 5835 5833 5831 5828 5825 5822 5819 5817 5814 5812 5809 5806 5803 5801 5799 5795 5792 5789 5786 5783 5781 5778 5774 5771 5768 5765 5761 5757 5753 5750 5747 5745 5742 5741 5739 5737 5736 5734 5732 5729 5727 5725 5722 5720 5717 5713 5710 5706 5703 5701 5699 5698 5698 5697 5698 5701 5702 5703 5706 5708 5708 5712 5717 5720 5725 5730 5733 5735 5738
5852 5851 5849 5848 5847 5847 5845 5843 5841 5840 5840 5839 5837 5834 5833 5831 5830 5828 5825 5823 5820 5817 5814 5812 5810 5807 5805 5802 5798 5795 5792 5789 5786 5784 5781 5778 5775 5773 5770 5767 5764 5761 5757 5753 5748 5744 5742 5739 5737 5736 5734 5733 5732 5730 5728 5725 5723 5720 5718 5715 5712 5708 5703 5698 5695 5692 5690 5690 5691 5692 5692 5694 5696 5696 5698 5700 5701 5704 5709 5714 5719 5724 5727 5729 5733
5847 5846 5844 5843 5843 5842 5840 5838 5837 5837 5836 5834 5832 5830 5828 5827 5824 5822 5819 5816 5814 5811 5809 5808 5806 5803 5800 5797 5793 5790 5787 5784 5781 5778 5776 5773 5770 5767 5764 5761 5759 5757 5753 5749 5744 5740 5738 5735 5733 5731 5730 5729 5727 5726 5723 5721 5719 5716 5713 5710 5707 5702 5697 5692 5688 5685 5682 5682 5683 5685 5686 5687 5689 5689 5690 5691 5694 5698 5702 5707 5712 5717 5720 5723 5727
5842 5841 5839 5838 5838 5836 5835 5834 5834 5833 5831 5829 5828 5826 5824 5822 5819 5816 5813 5810 5808 5806 5804 5803 5801 5798 5795 5792 5788 5784 5781 5778 5776 5773 5770 5767 5765 5762 5758 5756 5754 5752 5749 5744 5740 5737 5734 5731 5729 5727 5726 5724 5723 5721 5719 5716 5714 5712 5709 5706 5702 5697 5692 5688 5684 5680 5677 5676 5676 5678 5679 5680 5681 5682 5682 5683 5687 5691 5695 5700 5705 5710 5714 5717 5721
5837 5836 5834 5834 5833 5832 5831 5831 5830 5829 5828 5826 5824 5821 5819 5816 5813 5810 5808 5806 5804 5801 5799 5798 5796 5793 5790 5786 5783 5780 5777 5774 5770 5768 5765 5762 5760 5757 5753 5751 5749 5747 5743 5739 5735 5732 5730 5728 5725 5723 5722 5720 5718 5717 5715 5712 5710 5707 5705 5702 5697 5693 5688 5683 5679 5675 5673 5671 5670 5671 5673 5674 5674 5675 5675 5676 5680 5684 5688 5692 5698 5703 5708 5712 5716
5832 5831 5830 5829 5828 5828 5828 5828 5827 5826 5824 5822 5819 5816 5813 5810 5808 5806 5804 5802 5799 5797 5794 5792 5790 5787 5784 5781 5777 5775 5773 5769 5766 5763 5761 5758 5756 5753 5749 5746 5744 5742 5739 5735 5731 5728 5726 5724 5722 5720 5718 5716 5714 5713 5710 5708 5705 5703 5701 5697 5693 5689 5684 5679 5675 5671 5667 5666 5665 5665 5667 5668 5668 5669 5669 5670 5674 5678 5680 5685 5692 5698 5704 5709 5713
5828 5827 5826 5825 5825 5825 5824 5824 5823 5821 5819 5817 5814 5811 5808 5806 5804 5802 5800 5798 5795 5793 5790 5786 5784 5781 5778 5775 5772 5770 5768 5765 5762 5759 5756 5754 5751 5748 5745 5742 5740 5738 5735 5731 5728 5725 5722 5720 5719 5717 5715 5713 5711 5709 5706 5704 5702 5699 5696 5693 5689 5685 5680 5676 5672 5668 5664 5661 5659 5659 5661 5662 5662 5663 5664 5665 5668 5671 5674 5681 5689 5695 5701 5706 5709
5825 5823 5822 5821 5822 5821 5820 5819 5818 5816 5814 5812 5810 5807 5804 5802 5800 5798 5796 5793 5791 5788 5785 5782 5779 5776 5773 5770 5768 5765 5762 5759 5757 5755 5752 5749 5747 5744 5741 5739 5736 5734 5731 5729 5725 5722 5719 5716 5715 5714 5712 5710 5708 5706 5703 5700 5698 5695 5692 5689 5685 5680 5676 5671 5668 5665 5661 5657 5654 5654 5654 5655 5657 5658 5659 5661 5663 5666 5671 5679 5684 5690 5697 5702 5705
5820 5818 5818 5818 5818 5817 5815 5813 5812 5810 5809 5807 5806 5803 5801 5798 5796 5793 5791 5788 5785 5782 5779 5776 5774 5771 5768 5765 5763 5760 5757 5754 5752 5750 5747 5745 5742 5739 5737 5735 5732 5730 5728 5726 5722 5719 5716 5714 5712 5710 5709 5706 5705 5702 5700 5697 5694 5691 5688 5684 5680 5676 5671 5666 5662 5659 5658 5655 5651 5650 5649 5650 5652 5654 5655 5657 5659 5663 5669 5674 5679 5686 5694 5699 5700
5815 5814 5814 5813 5812 5811 5810 5809 5807 5805 5804 5803 5801 5798 5796 5794 5791 5788 5785 5782 5778 5775 5773 5771 5769 5766 5763 5761 5758 5755 5752 5749 5746 5744 5742 5740 5737 5734 5732 5730 5729 5726 5724 5722 5719 5716 5713 5711 5708 5707 5705 5702 5701 5699 5696 5694 5691 5687 5684 5680 5676 5672 5668 5662 5657 5653 5651 5650 5648 5646 5645 5646 5648 5650 5651 5653 5656 5660 5665 5670 5675 5683 5690 5694 5696
5811 5810 5809 5808 5807 5806 5805 5804 5803 5801 5799 5798 5795 5792 5790 5788 5785 5782 5780 5776 5773 5770 5767 5766 5764 5761 5759 5756 5753 5750 5747 5744 5742 5739 5737 5735 5732 5729 5727 5725 5724 5722 5719 5717 5715 5713 5710 5708 5705 5704 5702 5699 5697 5696 5693 5691 5688 5684 5681 5677 5672 5668 5663 5658 5654 5649 5646 5645 5643 5642 5642 5643 5645 5647 5648 5650 5654 5658 5663 5667 5673 5680 5685 5689 5692
5806 5805 5803 5802 5802 5801 5800 5799 5798 5796 5794 5792 5789 5786 5783 5781 5779 5777 5775 5772 5770 5766 5763 5760 5757 5755 5753 5751 5747 5745 5742 5740 5737 5735 5733 5730 5727 5724 5723 5721 5719 5716 5714 5712 5710 5709 5707 5705 5703 5701 5699 5697 5695 5693 5690 5688 5685 5681 5678 5674 5669 5665 5660 5656 5652 5647 5644 5642 5640 5640 5640 5641 5642 5644 5645 5648 5651 5656 5661 5666 5671 5676 5681 5685 5688
5800 5799 5798 5798 5797 5795 5793 5793 5792 5790 5788 5785 5783 5780 5777 5775 5773 5772 5769 5767 5765 5762 5759 5756 5752 5749 5747 5744 5741 5739 5737 5734 5732 5730 5727 5725 5722 5720 5718 5716 5713 5711 5709 5707 5706 5704 5703 5702 5700 5698 5696 5694 5692 5690 5688 5685 5682 5679 5675 5671 5667 5663 5659 5655 5651 5646 5643 5640 5638 5638 5638 5639 5640 5641 5642 5645 5649 5654 5659 5664 5668 5673 5677 5681 5684
5795 5794 5794 5793 5792 5789 5787 5787 5786 5784 5782 5779 5777 5775 5773 5770 5769 5767 5764 5762 5759 5757 5754 5751 5748 5744 5742 5739 5736 5733 5730 5728 5727 5725 5722 5719 5717 5715 5713 5711 5708 5706 5704 5703 5702 5701 5699 5698 5697 5695 5693 5691 5689 5687 5685 5683 5680 5677 5674 5669 5665 5662 5658 5654 5649 5645 5641 5638 5636 5635 5636 5637 5637 5638 5640 5643 5648 5653 5657 5660 5664 5669 5673 5676 5679
5790 5789 5789 5788 5785 5783 5782 5781 5780 5778 5776 5774 5772 5770 5769 5766 5763 5761 5759 5756 5753 5750 5748 5746 5743 5740 5738 5735 5731 5728 5725 5723 5721 5719 5717 5715 5713 5710 5708 5705 5703 5701 5700 5699 5698 5697 5696 5695 5693 5691 5690 5688 5687 5685 5683 5680 5677 5675 5672 5668 5665 5661 5657 5652 5648 5644 5640 5636 5634 5634 5634 5635 5635 5637 5639 5643 5646 5650 5654 5657 5660 5664 5668 5672 5675
5784 5783 5782 5780 5779 5778 5777 5775 5774 5772 5771 5769 5768 5767 5764 5761 5758 5755 5752 5749 5746 5744 5742 5740 5738 5736 5733 5730 5727 5724 5721 5718 5716 5714 5712 5710 5708 5706 5704 5701 5698 5697 5696 5695 5694 5693 5692 5691 5690 5688 5687 5686 5684 5682 5680 5678 5675 5673 5670 5667 5664 5661 5656 5651 5646 5642 5638 5635 5633 5632 5632 5633 5634 5636 5639 5642 5645 5648 5651 5654 5657 5660 5664 5668 5672
5778 5776 5775 5774 5773 5772 5771 5769 5768 5767 5766 5765 5763 5761 5759 5755 5752 5749 5745 5742 5740 5738 5736 5733 5732 5729 5727 5724 5721 5718 5716 5714 5711 5709 5708 5706 5704 5702 5699 5697 5694 5693 5692 5691 5691 5690 5689 5688 5687 5686 5685 5683 5681 5679 5677 5675 5673 5671 5669 5666 5663 5660 5656 5650 5645 5641 5637 5634 5633 5631 5631 5631 5633 5636 5639 5642 5644 5646 5648 5651 5654 5657 5660 5664 5668
5773 5771 5770 5769 5768 5766 5765 5763 5763 5762 5762 5760 5757 5754 5751 5749 5746 5743 5739 5736 5733 5731 5729 5726 5723 5721 5720 5718 5715 5713 5711 5709 5707 5705 5703 5701 5700 5697 5695 5693 5691 5690 5689 5688 5688 5687 5686 5685 5684 5683 5682 5681 5679 5677 5675 5673 5671 5669 5667 5665 5662 5659 5655 5650 5645 5641 5637 5634 5632 5631 5630 5630 5632 5634 5637 5640 5642 5644 5646 5648 5651 5654 5658 5661 5664
5767 5766 5765 5765 5764 5763 5761 5758 5757 5756 5755 5753 5750 5746 5744 5741 5738 5735 5732 5730 5727 5725 5723 5720 5717 5715 5713 5712 5710 5708 5706 5704 5703 5701 5699 5698 5696 5694 5692 5690 5688 5687 5686 5686 5685 5684 5683 5682 5681 5680 5680 5678 5676 5675 5673 5671 5669 5667 5666 5663 5661 5658 5654 5650 5646 5642 5638 5635 5633 5631 5629 5630 5631 5633 5635 5638 5640 5641 5644 5646 5649 5652 5655 5657 5661
5762 5761 5761 5760 5760 5759 5757 5753 5750 5749 5748 5746 5742 5739 5736 5734 5731 5728 5726 5724 5722 5719 5717 5714 5712 5709 5707 5706 5705 5704 5702 5700 5699 5697 5696 5694 5692 5690 5688 5687 5685 5684 5683 5683 5682 5681 5680 5679 5678 5678 5677 5675 5674 5672 5671 5669 5668 5666 5664 5662 5660 5657 5653 5650 5646 5642 5639 5636 5633 5631 5629 5629 5630 5632 5633 5635 5637 5638 5641 5643 5646 5649 5652 5654 5657
5756 5755 5754 5754 5753 5752 5750 5747 5744 5742 5741 5740 5737 5734 5730 5727 5725 5722 5720 5718 5716 5714 5712 5709 5707 5705 5703 5701 5700 5699 5698 5696 5694 5693 5691 5690 5688 5687 5685 5683 5682 5681 5680 5680 5679 5678 5677 5676 5676 5675 5674 5673 5671 5670 5669 5667 5666 5665 5663 5661 5659 5656 5653 5650 5646 5643 5640 5637 5634 5631 5629 5629 5629 5630 5631 5633 5634 5636 5639 5641 5643 5646 5650 5652 5655
5750 5748 5747 5747 5746 5744 5743 5741 5739 5736 5734 5733 5731 5728 5725 5721 5718 5716 5714 5713 5710 5708 5706 5704 5703 5701 5698 5697 5695 5694 5693 5692 5690 5688 5687 5686 5684 5683 5681 5680 5678 5677 5677 5677 5677 5675 5674 5673 5673 5672 5671 5670 5669 5668 5667 5666 5665 5663 5662 5660 5658 5655 5653 5650 5647 5644 5641 5638 5635 5632 5630 5629 5628 5629 5629 5630 5631 5634 5636 5638 5641 5644 5647 5650 5652
5744 5741 5740 5740 5739 5737 5736 5734 5733 5730 5727 5726 5725 5723 5719 5715 5712 5710 5709 5707 5705 5702 5701 5699 5697 5696 5695 5693 5691 5690 5688 5687 5685 5684 5682 5681 5680 5679 5678 5676 5674 5673 5673 5673 5673 5673 5672 5671 5670 5669 5669 5667 5666 5666 5665 5664 5663 5662 5660 5659 5657 5655 5652 5650 5647 5645 5642 5639 5636 5634 5631 5629 5628 5628 5628 5628 5629 5631 5633 5635 5638 5641 5644 5646 5649
5738 5735 5733 5733 5733 5732 5730 5728 5725 5722 5719 5717 5716 5716 5713 5710 5707 5705 5703 5701 5699 5697 5696 5694 5692 5691 5690 5689 5688 5686 5684 5682 5681 5680 5678 5677 5676 5675 5674 5673 5671 5669 5669 5669 5669 5669 5669 5668 5667 5667 5666 5665 5664 5663 5662 5662 5661 5660 5659 5657 5656 5654 5652 5649 5647 5645 5642 5639 5637 5635 5633 5631 5629 5628 5628 5628 5628 5628 5630 5632 5634 5636 5639 5642 5644
5732 5730 5728 5727 5727 5725 5724 5722 5720 5717 5713 5710 5708 5707 5706 5704 5702 5700 5698 5696 5694 5692 5691 5690 5688 5687 5686 5684 5683 5681 5680 5678 5677 5676 5674 5673 5672 5671 5670 5669 5668 5666 5665 5665 5665 5665 5665 5665 5664 5664 5663 5662 5661 5660 5660 5659 5659 5658 5656 5655 5654 5652 5651 5649 5647 5644 5642 5640 5638 5635 5634 5632 5630 5629 5628 5628 5627 5627 5628 5629 5631 5632 5635 5638 5641
5728 5725 5723 5721 5720 5719 5717 5715 5714 5711 5709 5706 5703 5701 5699 5698 5697 5696 5693 5691 5690 5688 5686 5685 5683 5682 5681 5680 5679 5677 5676 5674 5673 5672 5670 5670 5669 5668 5667 5666 5665 5663 5662 5662 5662 5662 5661 5661 5661 5661 5660 5659 5658 5657 5657 5656 5656 5655 5654 5653 5652 5651 5649 5648 5646 5644 5642 5640 5638 5636 5635 5633 5631 5630 5629 5628 5627 5626 5627 5627 5628 5629 5631 5634 5637
5721 5719 5717 5716 5715 5713 5711 5709 5708 5705 5703 5701 5698 5696 5694 5693 5692 5690 5688 5687 5686 5684 5682 5680 5679 5677 5676 5675 5674 5673 5672 5670 5669 5668 5667 5666 5665 5664 5663 5663 5662 5661 5660 5659 5658 5658 5658 5657 5657 5657 5657 5656 5655 5654 5654 5653 5653 5652 5651 5651 5650 5649 5648 5646 5645 5643 5642 5640 5638 5637 5635 5634 5632 5631 5630 5629 5627 5627 5626 5626 5626 5627 5628 5631 5633
5714 5712 5711 5710 5708 5707 5705 5703 5701 5699 5697 5694 5692 5690 5689 5687 5686 5685 5684 5682 5681 5680 5678 5676 5674 5673 5672 5671 5670 5669 5668 5667 5666 5664 5663 5662 5661 5660 5659 5659 5658 5658 5657 5656 5655 5654 5654 5654 5653 5653 5653 5653 5652 5651 5651 5650 5650 5649 5649 5648 5647 5646 5646 5645 5643 5642 5641 5640 5638 5637 5635 5634 5632 5631 5630 5629 5628 5627 5626 5626 5625 5625 5626 5627 5629
5707 5706 5705 5704 5702 5700 5698 5697 5695 5693 5691 5689 5686 5685 5684 5682 5681 5680 5679 5677 5676 5675 5674 5672 5670 5668 5668 5667 5666 5665 5664 5663 5662 5661 5660 5658 5657 5656 5655 5654 5654 5654 5653 5653 5652 5651 5651 5650 5650 5649 5649 5649 5649 5648 5648 5647 5647 5646 5646 5645 5644 5644 5643 5642 5642 5641 5640 5638 5637 5636 5635 5633 5632 5631 5630 5629 5628 5627 5626 5626 5625 5625 5625 5626 5627
5701 5700 5699 5697 5696 5694 5692 5690 5688 5687 5685 5683 5681 5680 5678 5677 5675 5674 5674 5672 5671 5670 5669 5667 5665 5664 5663 5662 5661 5661 5659 5658 5657 5657 5656 5655 5654 5652 5651 5650 5650 5650 5649 5649 5649 5648 5648 5647 5646 5646 5646 5645 5645 5645 5645 5644 5644 5643 5643 5642 5641 5641 5640 5640 5639 5639 5638 5637 5636 5635 5634 5633 5632 5630 5629 5628 5627 5627 5626 5626 5626 5625 5625 5625 5625
5694 5693 5691 5690 5689 5688 5686 5684 5682 5681 5679 5678 5676 5674 5673 5671 5670 5669 5668 5667 5666 5665 5664 5662 5660 5659 5659 5658 5657 5657 5656 5654 5653 5652 5651 5651 5650 5649 5648 5647 5646 5646 5645 5645 5645 5645 5644 5644 5643 5642 5642 5642 5642 5641 5641 5641 5640 5640 5640 5639 5638 5638 5637 5637 5636 5636 5635 5635 5634 5633 5632 5632 5631 5630 5629 5628 5627 5626 5626 5626 5626 5626 5625 5625 5625
5687 5685 5684 5682 5682 5682 5681 5679 5677 5675 5673 5672 5670 5668 5667 5665 5664 5663 5662 5661 5660 5660 5659 5657 5655 5654 5654 5653 5653 5652 5652 5651 5649 5648 5647 5646 5646 5645 5644 5643 5643 5642 5642 5641 5641 5641 5640 5640 5640 5639 5639 5639 5638 5638 5638 5637 5637 5637 5636 5636 5635 5635 5634 5634 5633 5633 5633 5632 5632 5631 5631 5630 5630 5629 5628 5627 5626 5626 5625 5625 5625 5625 5625 5625 5625
5680 5679 5677 5675 5674 5674 5674 5673 5671 5669 5667 5665 5663 5662 5661 5660 5658 5657 5656 5656 5655 5655 5654 5652 5650 5650 5650 5649 5648 5647 5647 5647 5646 5645 5643 5643 5642 5641 5641 5640 5639 5639 5638 5638 5637 5637 5637 5637 5636 5636 5636 5635 5635 5635 5634 5634 5634 5634 5633 5633 5632 5632 5632 5631 5631 5630 5630 5630 5629 5629 5629 5628 5628 5627 5627 5627 5626 5625 5625 5624 5624 5624 5624 5624 5624
5673 5672 5671 5669 5667 5667 5666 5666 5665 5663 5661 5659 5657 5656 5655 5654 5653 5652 5651 5650 5650 5650 5650 5648 5647 5646 5646 5645 5644 5643 5642 5642 5641 5640 5640 5639 5638 5638 5637 5636 5636 5635 5635 5634 5634 5634 5634 5633 5633 5632 5632 5632 5632 5631 5631 5631 5630 5630 5630 5630 5629 5629 5628 5628 5628 5627 5627 5627 5627 5626 5626 5626 5625 5625 5625 5625 5625 5624 5624 5623 5623 5623 5623 5623 5623
5665 5665 5663 5662 5660 5659 5659 5658 5657 5655 5654 5653 5651 5650 5649 5648 5648 5647 5646 5645 5645 5645 5645 5644 5643 5643 5642 5641 5640 5639 5638 5637 5636 5636 5635 5635 5634 5634 5633 5633 5632 5631 5631 5631 5631 5630 5630 5630 5629 5629 5628 5628 5628 5628 5627 5627 5627 5626 5626 5626 5626 5625 5625 5625 5624 5624 5624 5624 5623 5623 5623 5623 5623 5623 5623 5622 5622 5622 5622 5622 5622 5621 5621 5621 5621
5657 5656 5656 5655 5653 5652 5651 5650 5649 5648 5647 5646 5645 5644 5644 5643 5642 5642 5641 5641 5640 5640 5640 5639 5639 5638 5638 5636 5635 5635 5634 5633 5632 5631 5631 5630 5630 5630 5629 5628 5628 5628 5627 5627 5627 5627 5626 5626 5626 5625 5625 5624 5624 5624 5623 5623 5623 5623 5622 5622 5622 5622 5621 5621 5621 5621 5621 5620 5620 5620 5620 5620 5620 5620 5620 5620 5619 5619 5619 5619 5619 5619 5619 5619 5620
5649 5648 5648 5648 5646 5645 5645 5644 5643 5641 5640 5640 5639 5638 5638 5638 5637 5636 5636 5635 5635 5634 5634 5634 5634 5633 5633 5632 5631 5630 5630 5629 5628 5627 5626 5626 5625 5625 5625 5624 5624 5623 5623 5623 5623 5622 5622 5622 5621 5621 5620 5620 5620 5619 5619 5619 5618 5618 5618 5618 5618 5618 5618 5617 5617 5617 5617 5617 5617 5617 5617 5617 5617 5617 5617 5617 5616 5616 5616 5616 5616 5616 5616 5617 5617
5642 5641 5641 5641 5641 5640 5639 5638 5637 5636 5635 5634 5634 5633 5633 5632 5632 5631 5631 5630 5629 5629 5629 5628 5628 5628 5628 5627 5626 5626 5625 5624 5623 5622 5622 5621 5621 5621 5621 5620 5619 5619 5619 5618 5618 5618 5617 5617 5617 5616 5615 5615 5615 5615 5614 5614 5614 5614 5614 5614 5614 5614 5614 5614 5613 5613 5613 5613 5613 5613 5613 5613 5613 5613 5613 5613 5613 5613 5613 5613 5613 5613 5613 5613 5613
5636 5636 5635 5635 5635 5634 5633 5632 5631 5630 5630 5629 5629 5628 5628 5627 5627 5626 5626 5625 5624 5624 5623 5623 5623 5623 5623 5622 5622 5621 5620 5620 5619 5618 5617 5617 5616 5616 5616 5615 5615 5614 5614 5613 5613 5613 5612 5612 5612 5611 5610 5610 5610 5610 5610 5609 5609 5609 5609 5609 5609 5609 5609 5609 5609 5609 5609 5609 5609 5609 5608 5608 5609 5609 5609 5609 5609 5609 5609 5609 5609 5609 5610 5610 5610
5632 5631 5630 5630 5629 5629 5628 5627 5626 5625 5625 5624 5623 5623 5622 5621 5621 5621 5621 5621 5620 5619 5619 5618 5618 5618 5618 5617 5617 5617 5616 5615 5615 5614 5613 5613 5612 5612 5611 5611 5610 5610 5609 5608 5608 5608 5607 5607 5607 5606 5605 5605 5606 5605 5605 5605 5604 5604 5604 5604 5604 5604 5604 5605 5605 5605 5605 5605 5605 5605 5604 5604 5605 5605 5605 5605 5605 5605 5605 5605 5605 5605 5606 5606 5606
5627 5626 5625 5624 5623 5623 5622 5622 5621 5621 5620 5619 5618 5617 5617 5617 5616 5616 5616 5616 5615 5614 5614 5614 5614 5614 5613 5613 5612 5612 5611 5611 5610 5609 5609 5608 5607 5607 5606 5606 5605 5605 5604 5604 5603 5603 5602 5602 5602 5601 5600 5600 5601 5601 5600 5600 5600 5599 5599 5599 5599 5600 5600 5600 5601 5601 5601 5601 5601 5601 5601 5601 5601 5601 5600 5600 5601 5601 5601 5601 5601 5601 5602 5602 5602